Findlay, OH

6:38 AM EDT on September 20, 2019 (GMT -0400)
Findlay

Weather History for KFDY - July, 2019

Change the Weather History Date:

Monday, July 22, 2019

  Actual Average Record
Temperature  
Mean Temperature 70 °F -  
Max Temperature 77 °F 81 °F 98 °F (1952)
Min Temperature 66 °F 63 °F 51 °F (2000)
Cooling Degree Days 6    
Growing Degree Days 20 (Base 50)    
Moisture  
Dew Point 64 °F    
Average Humidity 80    
Maximum Humidity 93    
Minimum Humidity 57    
Precipitation  
Precipitation 0.48 in - - ()
Sea Level Pressure  
Sea Level Pressure 29.91 in    
Wind  
Wind Speed 10 mph (NNE)    
Max Wind Speed 17 mph    
Max Gust Speed 24 mph    
Visibility 9 miles    
Events Rain    
Averages and records for this station are not official NWS values.
T = Trace of Precipitation, MM = Missing Value Source: NWS Daily Summary

Daily Weather History Graph

Daily Weather History Graph

Search for Another Location

Airport or City:

Astronomy

Jul. 22, 2019 Rise Set
Actual Time 6:21 AM EDT 9:00 PM EDT
Civil Twilight 5:49 AM EDT 9:32 PM EDT
Nautical Twilight 5:09 AM EDT 10:12 PM EDT
Astronomical Twilight 4:23 AM EDT 10:57 PM EDT
Moon No Moon Rise 11:39 AM EDT (7/22)
Length of Visible Light 15h 43m
Length of Day
14h 39m
Waning Gibbous, 72% of the Moon is Illuminated
Jul 22
Waning Gibbous
Jul 24
Last Quarter
Jul 31
New
Aug 7
First Quarter
Aug 15
Full

Hourly Weather History & Observations

Time (EDT) Temp. Dew Point Humidity Pressure Visibility Wind Dir Wind Speed Gust Speed Precip Events Conditions
12:26 AM 72.0 °F 69.1 °F 91% 29.90 in 10.0 mi ENE 10.4 mph - N/A   Overcast
12:33 AM 73.0 °F 69.1 °F 87% 29.91 in 10.0 mi ENE 11.5 mph - N/A   Overcast
12:53 AM 72.0 °F 68.0 °F 87% 29.88 in 10.0 mi NE 10.4 mph - N/A   Overcast
1:53 AM 70.0 °F 64.9 °F 84% 29.86 in 10.0 mi NE 9.2 mph - N/A   Overcast
2:18 AM 70.0 °F 64.9 °F 84% 29.90 in 10.0 mi NNE 6.9 mph - N/A   Overcast
2:26 AM 69.1 °F 64.9 °F 87% 29.90 in 10.0 mi NNE 10.4 mph - N/A   Overcast
2:53 AM 70.0 °F 64.9 °F 84% 29.86 in 10.0 mi NE 5.8 mph - N/A   Mostly Cloudy
3:04 AM 70.0 °F 64.9 °F 84% 29.89 in 10.0 mi NE 5.8 mph - N/A   Mostly Cloudy
3:45 AM 70.0 °F 64.9 °F 84% 29.88 in 10.0 mi NNE 6.9 mph - 0.00 in Rain Light Rain
3:53 AM 70.0 °F 64.0 °F 81% 29.85 in 10.0 mi NNE 8.1 mph - 0.01 in Rain Light Rain
4:53 AM 69.1 °F 66.0 °F 90% 29.84 in 4.0 mi NNE 9.2 mph - 0.09 in Rain Rain
5:10 AM 69.1 °F 66.0 °F 90% 29.87 in 10.0 mi NNW 8.1 mph - 0.00 in Rain Light Rain
5:19 AM 69.1 °F 66.9 °F 93% 29.87 in 3.0 mi NNE 13.8 mph - 0.08 in Rain Heavy Rain
5:24 AM 69.1 °F 66.9 °F 93% 29.87 in 1.8 mi NNE 12.7 mph - 0.19 in Rain Heavy Rain
5:32 AM 69.1 °F 66.0 °F 90% 29.87 in 3.0 mi NNE 12.7 mph - 0.21 in Rain Light Rain
5:50 AM 69.8 °F 66.2 °F 88% 29.88 in 10.0 mi NE 13.8 mph - 0.21 in   Overcast
5:53 AM 69.1 °F 64.9 °F 87% 29.86 in 10.0 mi NE 10.4 mph - 0.21 in   Overcast
6:14 AM 70.0 °F 66.9 °F 90% 29.89 in 8.0 mi North 8.1 mph - N/A   Overcast
6:53 AM 69.1 °F 66.0 °F 90% 29.86 in 4.0 mi ENE 9.2 mph - 0.01 in Rain Light Rain
7:36 AM 69.1 °F 66.9 °F 93% 29.90 in 1.8 mi North 9.2 mph - 0.10 in Rain Heavy Rain
7:49 AM 69.8 °F 66.2 °F 88% 29.91 in 3.0 mi North 12.7 mph 20.7 mph 0.15 in Rain Light Rain
7:53 AM 69.1 °F 66.0 °F 90% 29.89 in 3.0 mi North 11.5 mph 20.7 mph 0.16 in Rain Light Rain
8:00 AM 69.1 °F 66.0 °F 90% 29.91 in 2.0 mi North 12.7 mph 20.7 mph 0.00 in Rain Light Rain
8:11 AM 68.0 °F 64.9 °F 90% 29.92 in 6.0 mi North 17.3 mph 24.2 mph 0.00 in Rain Light Rain
8:37 AM 68.0 °F 64.9 °F 90% 29.92 in 10.0 mi NE 15.0 mph - 0.00 in   Overcast
8:53 AM 68.0 °F 64.9 °F 90% 29.91 in 10.0 mi North 12.7 mph - 0.00 in   Overcast
9:08 AM 68.0 °F 64.9 °F 90% 29.93 in 10.0 mi North 13.8 mph - N/A   Overcast
9:21 AM 68.0 °F 64.9 °F 90% 29.93 in 10.0 mi NNE 15.0 mph - N/A   Overcast
9:28 AM 68.0 °F 64.9 °F 90% 29.93 in 10.0 mi NNE 12.7 mph - N/A   Overcast
9:53 AM 69.1 °F 64.9 °F 87% 29.91 in 10.0 mi NNE 9.2 mph - N/A   Overcast
10:05 AM 70.0 °F 64.9 °F 84% 29.94 in 10.0 mi North 9.2 mph - N/A   Overcast
10:53 AM 73.0 °F 64.0 °F 73% 29.91 in 10.0 mi NNE 12.7 mph - N/A   Mostly Cloudy
11:40 AM 73.9 °F 64.0 °F 71% 29.94 in 10.0 mi North 11.5 mph - N/A   Scattered Clouds
11:53 AM 73.9 °F 64.9 °F 73% 29.91 in 10.0 mi NNE 12.7 mph - N/A   Mostly Cloudy
12:53 PM 75.9 °F 64.0 °F 67% 29.91 in 10.0 mi North 10.4 mph - N/A   Mostly Cloudy
1:02 PM 75.9 °F 64.0 °F 67% 29.94 in 10.0 mi NNE 10.4 mph - N/A   Scattered Clouds
1:46 PM 73.9 °F 64.0 °F 71% 29.94 in 10.0 mi North 6.9 mph - N/A   Overcast
1:53 PM 73.9 °F 64.0 °F 71% 29.92 in 10.0 mi North 9.2 mph - N/A   Mostly Cloudy
2:44 PM 75.0 °F 63.0 °F 66% 29.94 in 10.0 mi North 9.2 mph - N/A   Scattered Clouds
2:53 PM 75.9 °F 63.0 °F 64% 29.91 in 10.0 mi NNW 11.5 mph - N/A   Mostly Cloudy
3:53 PM 75.9 °F 62.1 °F 62% 29.91 in 10.0 mi NNW 10.4 mph - N/A   Clear
4:53 PM 75.9 °F 60.1 °F 58% 29.91 in 10.0 mi NW 10.4 mph - N/A   Clear
5:53 PM 75.0 °F 61.0 °F 62% 29.92 in 10.0 mi NNW 8.1 mph - N/A   Clear
6:53 PM 75.0 °F 62.1 °F 64% 29.92 in 10.0 mi NW 6.9 mph - N/A   Mostly Cloudy
7:53 PM 73.9 °F 57.9 °F 57% 29.93 in 10.0 mi North 15.0 mph - N/A   Scattered Clouds
8:53 PM 71.1 °F 55.9 °F 59% 29.95 in 10.0 mi North 9.2 mph - N/A   Clear
9:53 PM 68.0 °F 57.0 °F 68% 29.96 in 10.0 mi NNW 5.8 mph - N/A   Clear
10:53 PM 66.9 °F 57.9 °F 73% 29.97 in 10.0 mi NNW 4.6 mph - N/A   Clear
11:53 PM 66.0 °F 57.9 °F 75% 29.98 in 10.0 mi North 6.9 mph - N/A   Clear